Waterville, ME

8:35 AM EST on February 10, 2016 (GMT -0500)
Waterville Lafleur

Weather History for KWVL - April, 2013

Change the Weather History Date:

Saturday, April 27, 2013

  Actual Average Record
Temperature  
Mean Temperature 46 °F -  
Max Temperature 62 °F 61 °F 91 °F (1990)
Min Temperature 30 °F 34 °F 21 °F (1987)
Degree Days  
Heating Degree Days 19    
Moisture  
Dew Point 31 °F    
Average Humidity 56    
Maximum Humidity 93    
Minimum Humidity 27    
Precipitation  
Precipitation 0.00 in - - ()
Sea Level Pressure  
Sea Level Pressure 30.33 in    
Wind  
Wind Speed 2 mph (ESE)    
Max Wind Speed 8 mph    
Max Gust Speed -    
Visibility 10 miles    
Events      
Averages and records for this station are not official NWS values.
T = Trace of Precipitation, MM = Missing Value Source: NWS Daily Summary

Daily Weather History Graph

Daily Weather History Graph

Search for Another Location

Airport or City:

Trip Planner

Search our weather history database for the weather conditions in past years. The results will help you decide how hot, cold, wet, or windy it might be!

Date:

Astronomy

Apr. 27, 2013 Rise Set
Actual Time 5:34 AM EDT 7:38 PM EDT
Civil Twilight 5:03 AM EDT 8:10 PM EDT
Nautical Twilight 4:24 AM EDT 8:49 PM EDT
Astronomical Twilight 3:41 AM EDT 9:32 PM EDT
Moon 10:08 PM EDT (4/27) 6:46 AM EDT (4/27)
Length of Visible Light 15h 07m
Length of Day
14h 03m
Waning Gibbous, 95% of the Moon is Illuminated
Apr 27
Waning Gibbous
May 2
Last Quarter
May 9
New
May 18
First Quarter
May 25
Full

Hourly Weather History & Observations

Time (EDT) Temp. Windchill Dew Point Humidity Pressure Visibility Wind Dir Wind Speed Gust Speed Precip Events Conditions
12:15 AM 39.2 °F - 28.4 °F 65% 30.38 in 10.0 mi Calm Calm - N/A   Clear
12:35 AM 39.2 °F - 26.6 °F 61% 30.38 in 10.0 mi Calm Calm - N/A   Clear
12:55 AM 37.4 °F - 28.4 °F 70% 30.38 in 10.0 mi Calm Calm - N/A   Clear
1:15 AM 37.4 °F - 28.4 °F 70% 30.38 in 10.0 mi Calm Calm - N/A   Clear
1:35 AM 37.4 °F - 28.4 °F 70% 30.37 in 10.0 mi Calm Calm - N/A   Clear
1:55 AM 33.8 °F - 28.4 °F 81% - 10.0 mi Calm Calm - N/A   Clear
2:15 AM 35.6 °F - 28.4 °F 75% - 10.0 mi Calm Calm - N/A   Clear
2:35 AM 35.6 °F - 28.4 °F 75% - 10.0 mi Calm Calm - N/A   Clear
2:55 AM 35.6 °F - 28.4 °F 75% - 10.0 mi Calm Calm - N/A   Clear
3:15 AM 35.6 °F - 28.4 °F 75% - 10.0 mi Calm Calm - N/A   Clear
3:35 AM 35.6 °F - 30.2 °F 81% - 10.0 mi Calm Calm - N/A   Clear
3:55 AM 35.6 °F - 30.2 °F 81% - 10.0 mi Calm Calm - N/A   Clear
4:15 AM 33.8 °F - 28.4 °F 81% - 10.0 mi Calm Calm - N/A   Clear
4:35 AM 33.8 °F - 30.2 °F 87% - 10.0 mi Calm Calm - N/A   Clear
4:55 AM 32.0 °F - 28.4 °F 87% - 10.0 mi Calm Calm - N/A   Clear
5:15 AM 30.2 °F - 28.4 °F 93% - 10.0 mi Calm Calm - N/A   Clear
5:35 AM 32.0 °F - 28.4 °F 87% - 10.0 mi Calm Calm - N/A   Clear
5:55 AM 32.0 °F - 28.4 °F 87% - 10.0 mi Calm Calm - N/A   Clear
6:15 AM 33.8 °F 27.0 °F 30.2 °F 87% - 10.0 mi North 8.1 mph - N/A   Clear
6:35 AM 35.6 °F 29.2 °F 30.2 °F 81% - 10.0 mi North 8.1 mph - N/A   Clear
6:55 AM 37.4 °F 31.4 °F 30.2 °F 75% - 10.0 mi North 8.1 mph - N/A   Clear
7:15 AM 37.4 °F 31.4 °F 30.2 °F 75% - 10.0 mi NNE 8.1 mph - N/A   Clear
7:35 AM 39.2 °F 34.2 °F 30.2 °F 70% - 10.0 mi NNE 6.9 mph - N/A   Clear
7:55 AM 41.0 °F 37.1 °F 32.0 °F 70% 30.40 in 10.0 mi NE 5.8 mph - N/A   Clear
8:15 AM 42.8 °F 38.0 °F 30.2 °F 61% 30.40 in 10.0 mi North 8.1 mph - N/A   Clear
8:35 AM 44.6 °F 40.7 °F 32.0 °F 61% 30.40 in 10.0 mi NNE 6.9 mph - N/A   Clear
8:55 AM 44.6 °F 40.7 °F 32.0 °F 61% 30.40 in 10.0 mi North 6.9 mph - N/A   Clear
9:15 AM 46.4 °F 44.3 °F 32.0 °F 57% 30.40 in 10.0 mi North 4.6 mph - N/A   Clear
9:35 AM 48.2 °F - 33.8 °F 58% 30.40 in 10.0 mi NNE 4.6 mph - N/A   Clear
9:55 AM 48.2 °F - 33.8 °F 58% 30.39 in 10.0 mi NE 4.6 mph - N/A   Clear
10:15 AM 50.0 °F - 33.8 °F 54% 30.39 in 10.0 mi Calm Calm - N/A   Clear
10:35 AM 51.8 °F - 32.0 °F 47% 30.39 in 10.0 mi Calm Calm - N/A   Clear
10:56 AM 53.6 °F - 33.8 °F 47% 30.39 in 10.0 mi East 4.6 mph - N/A   Clear
11:15 AM 53.6 °F - 33.8 °F 47% 30.38 in 10.0 mi NE 3.5 mph - N/A   Clear
11:35 AM 55.4 °F - 30.2 °F 38% 30.38 in 10.0 mi North 3.5 mph - N/A   Clear
11:55 AM 55.4 °F - 30.2 °F 38% 30.37 in 10.0 mi ESE 3.5 mph - N/A   Clear
12:15 PM 57.2 °F - 28.4 °F 33% 30.36 in 10.0 mi ESE 4.6 mph - N/A   Clear
12:35 PM 57.2 °F - 28.4 °F 33% 30.35 in 10.0 mi NNE 6.9 mph - N/A   Clear
12:55 PM 57.2 °F - 28.4 °F 33% 30.35 in 10.0 mi Calm Calm - N/A   Clear
1:15 PM 59.0 °F - 28.4 °F 31% 30.34 in 10.0 mi SE 4.6 mph - N/A   Clear
1:35 PM 60.8 °F - 28.4 °F 29% 30.33 in 10.0 mi SSE 6.9 mph - N/A   Partly Cloudy
1:55 PM 60.8 °F - 28.4 °F 29% 30.32 in 10.0 mi ESE 6.9 mph - N/A   Mostly Cloudy
2:15 PM 59.0 °F - 28.4 °F 31% 30.32 in 10.0 mi ENE 3.5 mph - N/A   Scattered Clouds
2:35 PM 59.0 °F - 28.4 °F 31% 30.31 in 10.0 mi ESE 4.6 mph - N/A   Partly Cloudy
2:55 PM 59.0 °F - 26.6 °F 29% 30.30 in 10.0 mi Calm Calm - N/A   Scattered Clouds
3:15 PM 60.8 °F - 28.4 °F 29% 30.29 in 10.0 mi NE 3.5 mph - N/A   Overcast
3:35 PM 60.8 °F - 26.6 °F 27% 30.29 in 10.0 mi ENE 3.5 mph - N/A   Mostly Cloudy
3:55 PM 62.6 °F - 28.4 °F 27% 30.28 in 10.0 mi ENE 4.6 mph - N/A   Overcast
4:15 PM 60.8 °F - 26.6 °F 27% 30.27 in 10.0 mi North 6.9 mph - N/A   Mostly Cloudy
4:55 PM 62.6 °F - 28.4 °F 27% 30.27 in 10.0 mi South 6.9 mph - N/A   Scattered Clouds
5:15 PM 60.8 °F - 26.6 °F 27% 30.27 in 10.0 mi South 5.8 mph - N/A   Partly Cloudy
5:35 PM 62.6 °F - 28.4 °F 27% 30.27 in 10.0 mi Calm Calm - N/A   Partly Cloudy
5:55 PM 57.2 °F - 32.0 °F 38% 30.27 in 10.0 mi South 4.6 mph - N/A   Mostly Cloudy
6:15 PM 57.2 °F - 32.0 °F 38% 30.27 in 10.0 mi South 6.9 mph - N/A   Overcast
6:35 PM 55.4 °F - 33.8 °F 44% 30.27 in 10.0 mi South 3.5 mph - N/A   Mostly Cloudy
6:55 PM 55.4 °F - 33.8 °F 44% 30.27 in 10.0 mi South 6.9 mph - N/A   Clear
7:15 PM 55.4 °F - 35.6 °F 47% 30.28 in 10.0 mi South 5.8 mph - N/A   Clear
7:35 PM 53.6 °F - 33.8 °F 47% 30.28 in 10.0 mi South 5.8 mph - N/A   Clear
8:15 PM 51.8 °F - 33.8 °F 50% 30.29 in 10.0 mi SSW 4.6 mph - N/A   Clear
8:35 PM 50.0 °F - 33.8 °F 54% 30.29 in 10.0 mi SSW 4.6 mph - N/A   Clear
8:55 PM 48.2 °F - 33.8 °F 58% 30.30 in 10.0 mi SSW 3.5 mph - N/A   Clear
9:15 PM 48.2 °F - 33.8 °F 58% 30.30 in 10.0 mi SSW 4.6 mph - N/A   Clear
9:35 PM 46.4 °F 43.5 °F 35.6 °F 66% 30.30 in 10.0 mi SW 5.8 mph - N/A   Clear
9:55 PM 46.4 °F 44.3 °F 33.8 °F 62% 30.30 in 10.0 mi SW 4.6 mph - N/A   Clear
10:35 PM 46.4 °F 45.2 °F 33.8 °F 62% 30.30 in 10.0 mi SSW 3.5 mph - N/A   Clear
10:55 PM 44.6 °F 42.2 °F 33.8 °F 66% 30.30 in 10.0 mi SW 4.6 mph - N/A   Clear
11:15 PM 42.8 °F 39.3 °F 33.8 °F 70% 30.30 in 10.0 mi SW 5.8 mph - N/A   Clear
11:35 PM 44.6 °F 41.4 °F 35.6 °F 71% 30.30 in 10.0 mi SW 5.8 mph - N/A   Clear
11:55 PM 44.6 °F 42.2 °F 33.8 °F 66% 30.30 in 10.0 mi SW 4.6 mph - N/A   Clear